Location: Deer Creek
(37.2516°N, 119.1754°W)
Time: 15:10:31
(UTC+00:00)

Daily predictions for brighter satellites

Satellite Brightness Start Highest point End
(mag) Time Altitude Azimuth Time Altitude Azimuth Time Altitude Azimuth
Cosmos 1263 4.3 12:06:17 10° N 12:09:25 74° E 12:12:21 10° S
SL-8 R/B 4.1 12:05:19 10° WSW 12:10:03 59° NNW 12:14:48 10° NE
Cosmos 1464 Rocket 4.2 12:05:10 10° S 12:11:32 88° E 12:17:57 10° N
Cosmos 1900 4.5 12:07:58 10° SSW 12:12:49 76° ESE 12:17:45 10° NNE
Cosmos 2034 Rocket 4.4 12:10:23 10° S 12:16:28 67° E 12:22:34 10° NNE
